Hazard, Kentucky, United States (41701)
Lat: 37.25N, Lon: 83.19W
Wx Zone: KYZ115
Local Info
Past Weather Observations for Saturday, August 30, 2014

NOTE: This archive is for the closest National Weather Service station to Hazard. Information may differ from the station used for current weather conditions.

Click here for Long-term Archive

Time Weather Temperature Dewpoint Humidity Pressure Winds Precip Visibility
23:53
Partly Cloudy
Light Rain
70°F / 21°C 68°F / 20°C 94% 30.12 in
(1020 mb)
Calm 0.11 in
(2.79 mm)
6SM
23:12
Overcast
Rain
72°F / 22°C 68°F / 20°C 88% 30.15 in
(1021 mb)
Calm 0.06 in
(1.52 mm)
4SM
23:05
Overcast
Thunder Storms
72°F / 22°C 68°F / 20°C 88% 30.15 in
(1021 mb)
Variable 5.8 mph
(Variable 9 kph)
0.04 in
(1.02 mm)
3SM
22:53
Overcast
Thunder Storms
72°F / 22°C 70°F / 21°C 94% 30.15 in
(1021 mb)
Variable 4.6 mph
(Variable 7 kph)
0.31 in
(7.87 mm)
4SM
22:50
Overcast
Thunder Storms
72°F / 22°C 70°F / 21°C 94% 30.15 in
(1021 mb)
Variable 3.5 mph
(Variable 6 kph)
0.31 in
(7.87 mm)
3SM
22:40
Overcast
Thunder Storms
72°F / 22°C 70°F / 21°C 94% 30.15 in
(1021 mb)
Variable 3.5 mph
(Variable 6 kph)
0.28 in
(7.11 mm)
2SM
22:32
Overcast
Thunder Storms
72°F / 22°C 70°F / 21°C 94% 30.15 in
(1021 mb)
Calm 0.25 in
(6.35 mm)
2SM
22:30
Overcast
Thunder Storms
72°F / 22°C 70°F / 21°C 94% 30.15 in
(1021 mb)
Calm 0.24 in
(6.10 mm)
1 1/2SM
22:17
Overcast
Thunder Storms
72°F / 22°C 70°F / 21°C 94% 30.15 in
(1021 mb)
Calm 0.06 in
(1.52 mm)
1 1/2SM
22:12
Overcast
Thunder Storms
73°F / 23°C 70°F / 21°C 89% 30.15 in
(1021 mb)
Calm 0.03 in
(0.76 mm)
2 1/2SM
21:53
Overcast
Light Rain
75°F / 24°C 70°F / 21°C 83% 30.12 in
(1020 mb)
Calm 0.00 in
(0.00 mm)
9SM
20:53
Overcast
79°F / 26°C 68°F / 20°C 70% 30.12 in
(1020 mb)
Calm 0.00 in
(0.00 mm)
10SM
19:53
Mostly Cloudy
79°F / 26°C 66°F / 19°C 65% 30.09 in
(1019 mb)
Calm - 10SM
18:53
Overcast
81°F / 27°C 68°F / 20°C 66% 30.09 in
(1019 mb)
Calm 0.00 in
(0.00 mm)
10SM
17:53
Mostly Cloudy
82°F / 28°C 68°F / 20°C 62% 30.09 in
(1019 mb)
Calm - 10SM
16:53
Mostly Cloudy
84°F / 29°C 68°F / 20°C 58% 30.09 in
(1019 mb)
Variable 4.6 mph
(Variable 7 kph)
- 10SM
15:53
Clear
88°F / 31°C 68°F / 20°C 52% 30.09 in
(1019 mb)
Calm - 10SM
14:53
Partly Cloudy
88°F / 31°C 68°F / 20°C 52% 30.09 in
(1019 mb)
Variable 5.8 mph
(Variable 9 kph)
- 10SM
13:53
Partly Cloudy
86°F / 30°C 66°F / 19°C 52% 30.12 in
(1020 mb)
Variable 4.6 mph
(Variable 7 kph)
- 10SM
12:53
Mostly Cloudy
88°F / 31°C 68°F / 20°C 52% 30.15 in
(1021 mb)
Calm - 10SM
11:53
Partly Cloudy
84°F / 29°C 68°F / 20°C 58% 30.15 in
(1021 mb)
Variable 5.8 mph
(Variable 9 kph)
- 10SM
10:53
Clear
84°F / 29°C 68°F / 20°C 58% 30.15 in
(1021 mb)
Variable 3.5 mph
(Variable 6 kph)
- 10SM
09:53
Clear
81°F / 27°C 66°F / 19°C 62% 30.15 in
(1021 mb)
Variable 3.5 mph
(Variable 6 kph)
- 10SM
08:53
Clear
77°F / 25°C 66°F / 19°C 69% 30.15 in
(1021 mb)
Variable 3.5 mph
(Variable 6 kph)
- 10SM
07:53
Clear
75°F / 24°C 66°F / 19°C 74% 30.15 in
(1021 mb)
Calm - 10SM
06:53
Clear
73°F / 23°C 66°F / 19°C 78% 30.15 in
(1021 mb)
SSE 3.5 mph
(SSE 6 kph)
- 10SM
05:53
Clear
72°F / 22°C 66°F / 19°C 83% 30.15 in
(1021 mb)
Variable 3.5 mph
(Variable 6 kph)
- 10SM
04:53
Clear
72°F / 22°C 66°F / 19°C 83% 30.12 in
(1020 mb)
Variable 3.5 mph
(Variable 6 kph)
- 10SM
03:53
Clear
73°F / 23°C 68°F / 20°C 83% 30.12 in
(1020 mb)
Variable 3.5 mph
(Variable 6 kph)
- 10SM
02:53
Partly Cloudy
72°F / 22°C 70°F / 21°C 94% 30.12 in
(1020 mb)
Calm - 9SM
01:53
Fair
73°F / 23°C 70°F / 21°C 89% 30.12 in
(1020 mb)
Calm - 10SM
00:53
Fair
73°F / 23°C 70°F / 21°C 89% 30.12 in
(1020 mb)
SSE 4.6 mph
(SSE 7 kph)
- 10SM
Time Weather Temperature Dewpoint Humidity Pressure Winds Precip Visibility


Weather for websites

WeatherForYou.com, LLC is not responsible for any damages or problems caused by this service. Current weather conditions are obtained from the closest station including government and personal stations which may have varying degrees of accuracy. Weather forecasts are derived from the NOAA NDFD. Like all things, this site belongs to Jesus Christ... He just trusts me to maintain it. If you have any questions or comments email webmaster@weatherforyou.com

Copyright © 2014, WeatherForYou.com LLC. All rights reserved.